{"data":{"norad_id":64668,"epoch":"2026-09-20T09:30:53.537472Z","epoch_age_seconds":140512,"freshness":"FRESH","line1":"1 64668U 25139E   26263.39645298  .00010146  00000+0  31095-3 0  9997","line2":"2 64668  53.1596 298.4614 0001014  78.8201 281.2916 15.34404889 70155","mean_motion":15.34404889,"eccentricity":0.0001014,"inclination_deg":53.1596,"raan_deg":298.4614,"arg_perigee_deg":78.8201,"mean_anomaly_deg":281.2916,"bstar":0.00031095,"rev_number":7015,"period_min":93.847459058767,"perigee_km":461.99504938047,"apogee_km":463.38236883428,"semimajor_km":6840.8257091074,"source":"CELESTRAK","updated_at":"2026-09-21T09:00:35.397572Z"}}